Liepaja current weather conditions

sailwx.info

Wind from 290 at 6 knots

Air temperature 6.0° C
Visibility: greater than 5.4 NM
Dewpoint 3.0° C

Last reported at 2019-Mar-25 08:50 UTC.
Time now 2019-Mar-25 09:31 UTC

Location: N 56°31' E 021°06'.
View on Google Maps.

See reports from other nearby stations

  
Tides and Currents Weather Stations Pressure Air Temp Water Temp Dewpoint Dewpoint Depression Visibility Wind Speed Wind Dir Waves Ship Positions
date/time (UTC)wind fromknots sea level pressurealtimeterstation pressurevisibilityair tempwater tempwave heightnotes
2019-Mar-25 08:50 290 6 5.4 6.0
2019-Mar-25 08:20 280 6 5.4 5.0
2019-Mar-25 07:50 270 6 5.4 5.0
2019-Mar-25 07:20 260 7 5.4 5.0
2019-Mar-25 06:50 240 7 5.4 5.0
2019-Mar-25 06:20 230 6 5.4 4.0
2019-Mar-25 05:50 220 4 5.4 3.0
2019-Mar-25 05:20 210 2 5.4 3.0
2019-Mar-25 04:50 210 2 5.4 3.0
2019-Mar-25 04:20 190 4 5.4 3.0
2019-Mar-25 03:50 210 5 5.4 3.0
2019-Mar-25 03:20 200 4 5.4 2.0
2019-Mar-25 02:50 190 5 5.4 2.0
2019-Mar-25 02:20 160 5 5.4 3.0
2019-Mar-25 01:50 190 5 5.4 3.0
2019-Mar-25 01:20 190 5 5.4 3.0
2019-Mar-25 00:50 200 4 5.4 3.0
2019-Mar-25 00:20 200 4 5.4 4.0
2019-Mar-24 23:50 220 5 5.4 3.0
2019-Mar-24 23:20 200 6 5.4 4.0
2019-Mar-24 22:50 190 6 5.4 4.0
2019-Mar-24 22:20 200 7 5.4 4.0
2019-Mar-24 21:50 210 7 5.4 4.0
2019-Mar-24 21:20 200 7 5.4 3.0
2019-Mar-24 20:50 210 9 5.4 3.0
2019-Mar-24 20:20 210 7 5.4 3.0
2019-Mar-24 19:50 210 8 5.4 3.0
2019-Mar-24 19:20 220 11 5.4 3.0
2019-Mar-24 18:50 210 8 5.4 3.0
2019-Mar-24 18:20 210 9 5.4 3.0
2019-Mar-24 17:50 220 9 5.4 3.0
2019-Mar-24 17:20 220 8 5.4 3.0
2019-Mar-24 16:50 220 11 5.4 3.0
2019-Mar-24 16:20 230 12 5.4 4.0
2019-Mar-24 15:50 220 8 5.4 4.0
2019-Mar-24 15:20 230 8 5.4 5.0
2019-Mar-24 14:50 240 7 5.4 5.0
2019-Mar-24 14:20 250 8 5.4 6.0
2019-Mar-24 13:50 270 7 5.4 6.0
2019-Mar-24 13:20 290 6 5.4 6.0
2019-Mar-24 12:50 300 7 5.4 5.0
2019-Mar-24 12:20 290 7 5.4 5.0
2019-Mar-24 11:50 290 9 5.4 6.0
2019-Mar-24 11:20 280 9 5.4 6.0
2019-Mar-24 10:50 290 8 5.4 6.0
2019-Mar-24 10:20 290 8 5.4 6.0
2019-Mar-24 09:50 290 8 5.4 6.0
2019-Mar-24 09:20 280 11 5.4 6.0
2019-Mar-24 08:50 290 9 5.4 5.0
2019-Mar-24 08:20 300 8 5.4 6.0
2019-Mar-24 07:50 300 7 5.4 6.0
2019-Mar-24 07:20 300 8 5.4 5.0
2019-Mar-24 06:50 290 9 5.4 5.0
2019-Mar-24 06:20 300 9 5.4 5.0
2019-Mar-24 05:50 290 8 5.4 4.0
2019-Mar-24 05:20 280 8 5.4 4.0
2019-Mar-24 04:50 280 7 5.4 4.0
2019-Mar-24 04:20 290 6 5.4 4.0
2019-Mar-24 03:50 280 6 5.4 4.0
2019-Mar-24 03:20 280 6 5.4 4.0
2019-Mar-24 02:50 270 6 5.4 4.0
2019-Mar-24 02:20 270 6 5.4 4.0
2019-Mar-24 01:50 270 6 5.4 4.0
2019-Mar-24 01:20 260 7 5.4 4.0
2019-Mar-24 00:50 250 7 5.4 3.0
2019-Mar-24 00:20 260 7 5.4 4.0
2019-Mar-23 23:50 270 8 5.4 5.0
2019-Mar-23 23:20 280 8 5.4 5.0
2019-Mar-23 22:50 280 9 5.4 5.0
2019-Mar-23 22:20 270 7 5.4 5.0
2019-Mar-23 21:50 270 7 5.4 5.0
2019-Mar-23 21:20 270 8 5.4 5.0
2019-Mar-23 20:50 270 8 5.4 5.0
2019-Mar-23 20:20 260 9 5.4 5.0
2019-Mar-23 19:50 260 11 5.4 5.0
2019-Mar-23 19:20 260 11 4.3 5.0
2019-Mar-23 18:50 250 9 3.2 4.0 Mist.
2019-Mar-23 18:20 240 9 0.7 4.0 Fog.
2019-Mar-23 17:50 250 11 0.4 4.0 Fog.
2019-Mar-23 17:20 250 11 0.3 4.0 Fog.
2019-Mar-23 16:50 250 12 0.4 4.0 Fog.
2019-Mar-23 16:20 230 12 0.3 5.0 Fog.
2019-Mar-23 15:50 230 12 0.3 5.0 Fog.
2019-Mar-23 15:20 220 12 0.4 5.0 Fog.
2019-Mar-23 14:50 210 12 0.4 5.0 Fog.
2019-Mar-23 14:20 210 13 0.4 5.0 Fog.
2019-Mar-23 13:50 210 14 0.6 6.0 Mist.
2019-Mar-23 13:20 190 11 0.6 6.0 Mist.
2019-Mar-23 12:50 190 8 0.9 5.0 Mist.
2019-Mar-23 12:20 190 12 1.2 5.0 Mist.
2019-Mar-23 11:50 190 9 1.1 5.0 Mist.
2019-Mar-23 11:20 200 13 5.4 5.0
2019-Mar-23 10:50 190 12 5.4 6.0
2019-Mar-23 10:20 190 12 4.9 6.0
2019-Mar-23 09:50 200 13 5.4 6.0
2019-Mar-23 09:20 200 12 5.4 6.0